[[{"header":{"parameterUnit":"m.s-1","parameterCategory":2,"la1":30.2991,"la2":30.254,"lo1":-89.0895,"lo2":-89.0444,"dy":0.0017,"dx":0.0017,"nx":28,"ny":28,"refTime":"2025-11-19T03:00:00:Z","depth":"0","parameterNumber":2,"parameterNumberName":"U-component_of_CURRENTS"},"data":[0,0,0,0,0,0,0,0,0,0,0,0,0,0,0,0,0,0,0,0,0,0,0,0,0,0,0,0,0,0,0,0,0,0,0,0,0,0,0,0,0,0,0,0,0,0,0,0,0,0,0,0,0,0,0,0,0,0,-0.2689,-0.2689,0,-0.2757,-0.2758,-0.2759,-0.2757,-0.2756,-0.2755,-0.2754,-0.2909,-0.2914,-0.292,0,0,0,0,0,0,0,0,0,0,0,0,0,-0.2604,-0.2606,-0.2688,-0.2689,-0.269,-0.2757,-0.2758,-0.276,-0.2757,-0.2756,-0.2754,-0.2753,-0.2908,-0.2914,-0.292,0,0,0,0,0,0,0,0,0,0,0,0,0,-0.2656,-0.2606,-0.2688,-0.2695,-0.2696,-0.2757,-0.2758,-0.276,-0.2758,-0.2756,-0.2754,-0.2752,-0.2906,-0.2913,-0.2921,-0.3005,0,0,-0.2945,-0.2948,0,0,0,0,0,0,0,0,-0.2653,-0.2659,-0.2693,-0.2695,-0.2696,-0.2745,-0.2786,-0.2845,-0.2758,-0.2737,-0.2754,-0.2752,-0.2862,-0.2873,-0.2893,-0.3012,-0.3019,-0.2946,-0.295,-0.2954,-0.2956,0,0,0,0,0,0,0,-0.2649,-0.2657,-0.2718,-0.2694,-0.2696,-0.2711,-0.2716,-0.2797,-0.2812,-0.2739,-0.2738,-0.2742,-0.2864,-0.2885,-0.2896,-0.3021,-0.2946,-0.2952,-0.2957,-0.296,-0.3212,-0.3214,0,0,0,0,0,0,-0.2636,-0.2653,-0.2716,-0.272,-0.2667,-0.2714,-0.272,-0.2733,-0.2809,-0.2818,-0.2744,-0.2742,-0.2872,-0.2887,-0.2902,-0.2943,-0.2954,-0.2961,-0.2966,-0.321,-0.3212,-0.3214,0,0,0,0,0,0,-0.2634,-0.2641,-0.2713,-0.2685,-0.2695,-0.2716,-0.2732,-0.2735,-0.2744,-0.2812,-0.2822,-0.2747,-0.2872,-0.2891,-0.2986,-0.2951,-0.2965,-0.2972,-0.3208,-0.3211,-0.3213,-0.3066,0,0,0,0,0,0,-0.2631,-0.264,-0.2646,-0.2685,-0.2696,-0.2742,-0.2733,-0.2738,-0.2749,-0.2747,-0.2819,-0.2832,-0.2872,-0.2974,-0.2993,-0.2962,-0.2978,-0.3205,-0.3209,-0.3212,-0.3068,-0.3063,-0.3059,0,0,0,0,0,-0.2628,-0.2644,-0.2646,-0.2653,-0.2703,-0.2742,-0.275,-0.276,-0.2751,-0.2761,-0.2823,-0.2829,-0.301,-0.2983,-0.3005,-0.2975,-0.3203,-0.3208,-0.3212,-0.307,-0.3064,-0.3059,0,0,0,0,0,0,-0.2609,-0.2646,-0.2649,-0.2674,-0.27,-0.274,-0.2752,-0.2759,-0.2814,-0.2817,-0.2871,-0.2891,-0.2954,-0.3016,-0.2984,-0.3068,-0.3102,-0.3111,-0.2986,-0.2982,-0.2977,-0.2969,-0.2985,0,0,0,0,0,-0.2608,-0.2625,-0.2663,-0.2678,-0.2693,-0.2722,-0.2737,-0.2749,-0.2799,-0.2818,-0.2863,-0.2931,-0.2996,-0.3027,-0.3102,-0.3163,-0.3178,-0.316,-0.3156,-0.3151,-0.3166,-0.3151,-0.3144,-0.3229,-0.3229,-0.3229,0,0,-0.2601,-0.2624,-0.2632,-0.2674,-0.2696,-0.2727,-0.2727,-0.2754,-0.2772,-0.2834,-0.2876,-0.2925,-0.3016,-0.3068,-0.31,-0.3107,-0.3135,-0.3156,-0.315,-0.3169,-0.3155,-0.3145,-0.3137,-0.3232,-0.3231,-0.3231,0,0,-0.2601,-0.2621,-0.2638,-0.2666,-0.2701,-0.2726,-0.273,-0.277,-0.2777,-0.2839,-0.2873,-0.2906,-0.302,-0.3045,-0.3083,-0.3115,-0.3117,-0.3137,-0.3091,-0.3075,-0.3065,-0.3058,-0.3037,-0.3029,-0.3123,-0.3123,-0.3123,0,-0.2588,-0.262,-0.2647,-0.2677,-0.2696,-0.2722,-0.2748,-0.2772,-0.2831,-0.2843,-0.2843,-0.2955,-0.3003,-0.3049,-0.3046,-0.3093,-0.3094,-0.3082,-0.3058,-0.3052,-0.3046,-0.3028,-0.302,-0.3117,-0.3117,-0.3118,-0.3119,0,-0.2606,-0.2633,-0.2647,-0.269,-0.2718,-0.2744,-0.2782,-0.2802,-0.281,-0.2827,-0.2864,-0.2917,-0.2977,-0.2976,-0.3021,-0.3009,-0.3024,-0.3046,-0.3045,-0.3027,-0.3011,-0.3005,-0.3107,-0.311,-0.3112,-0.3113,0,0,-0.2563,-0.2643,-0.2644,-0.2667,-0.2727,-0.275,-0.2785,-0.2819,-0.2831,-0.285,-0.2858,-0.2909,-0.2907,-0.2954,-0.2976,-0.295,-0.2879,-0.2974,-0.2976,-0.2907,-0.2835,-0.2787,-0.2776,-0.2881,-0.288,-0.288,-0.2826,0,-0.2561,-0.2612,-0.2656,-0.2697,-0.2726,-0.2769,-0.2799,-0.2832,-0.2852,-0.287,-0.2874,-0.2907,-0.2907,-0.2916,-0.2886,-0.2913,-0.2866,-0.2893,-0.2909,-0.291,-0.2828,-0.2769,-0.266,-0.2599,-0.2821,-0.282,-0.282,0,-0.2553,-0.2592,-0.2635,-0.2701,-0.2716,-0.2744,-0.2788,-0.2822,-0.2858,-0.2873,-0.288,-0.29,-0.289,-0.2881,-0.2853,-0.287,-0.2844,-0.2833,-0.2831,-0.2841,-0.2852,-0.2668,-0.2582,-0.256,-0.2812,-0.2813,-0.2813,0,-0.2494,-0.257,-0.2599,-0.2624,-0.2707,-0.2724,-0.2761,-0.2809,-0.2832,-0.2868,-0.2881,-0.2882,-0.2882,-0.2851,-0.2834,-0.2842,-0.2791,-0.2802,-0.2723,-0.272,-0.2663,-0.2656,-0.2521,-0.2751,-0.2751,-0.2751,-0.2751,0,-0.2468,-0.2488,-0.2573,-0.2589,-0.2614,-0.2687,-0.2711,-0.2753,-0.2806,-0.2821,-0.2867,-0.2868,-0.2872,-0.2852,-0.2825,-0.2755,-0.2778,-0.2704,-0.2696,-0.2611,-0.26,-0.2614,-0.2649,-0.2749,-0.275,-0.275,-0.275,0,-0.2388,-0.2453,-0.2484,-0.2565,-0.2586,-0.2598,-0.2675,-0.2689,-0.2761,-0.2783,-0.2792,-0.2848,-0.2827,-0.2819,-0.2779,-0.2737,-0.2637,-0.265,-0.2549,-0.2529,-0.2432,-0.2465,-0.2384,-0.2314,-0.2548,-0.2546,-0.2544,0,-0.235,-0.236,-0.2437,-0.2445,-0.2476,-0.2516,-0.2535,-0.2636,-0.2661,-0.2755,-0.275,-0.2771,-0.2755,-0.2698,-0.2632,-0.256,-0.2561,-0.2422,-0.2413,-0.2392,-0.2424,-0.2452,-0.2401,-0.2273,-0.2269,-0.2266,-0.2264,0,-0.2257,-0.2283,-0.2308,-0.2333,-0.2355,-0.2389,-0.2435,-0.2458,-0.2568,-0.26,-0.2635,-0.264,-0.2615,-0.2513,-0.2447,-0.2385,-0.2364,-0.2361,-0.2357,-0.2207,-0.2213,-0.2153,-0.2355,-0.2239,-0.2241,-0.2243,-0.2244,-0.2245,-0.2161,-0.2154,-0.2186,-0.2194,-0.2222,-0.2236,-0.2218,-0.2291,-0.232,-0.2352,-0.2453,-0.244,-0.2413,-0.2307,-0.2244,-0.2111,-0.2176,-0.2049,-0.2092,-0.2124,-0.2046,-0.2192,-0.2063,-0.2064,-0.2066,-0.2067,-0.2068,0,-0.2033,-0.2041,-0.2042,-0.2054,-0.2025,-0.209,-0.2118,-0.2083,-0.2069,-0.2158,-0.2173,-0.2194,-0.2091,-0.2074,-0.1966,-0.1875,-0.182,-0.1834,-0.184,-0.18,-0.1923,-0.1898,-0.1706,-0.1706,-0.1706,-0.1706,-0.1706,-0.1706,-0.1964,-0.1923,-0.193,-0.1847,-0.1847,-0.1769,-0.1752,-0.1731,-0.1762,-0.1769,-0.1829,-0.1924,-0.1937,-0.2034,-0.1884,-0.1779,-0.1733,-0.1682,-0.1714,-0.1811,-0.1834,-0.1857,-0.1838,-0.1636,-0.1636,-0.1507,-0.1506,-0.1506]},{"header":{"parameterUnit":"m.s-1","parameterCategory":2,"la1":30.2991,"la2":30.254,"lo1":-89.0895,"lo2":-89.0444,"dy":0.0017,"dx":0.0017,"nx":28,"ny":28,"refTime":"2025-11-19T03:00:00:Z","depth":"0","parameterNumber":3,"parameterNumberName":"V-component_of_CURRENTS"},"data":[0,0,0,0,0,0,0,0,0,0,0,0,0,0,0,0,0,0,0,0,0,0,0,0,0,0,0,0,0,0,0,0,0,0,0,0,0,0,0,0,0,0,0,0,0,0,0,0,0,0,0,0,0,0,0,0,0,0,-0.023,-0.0229,0,-0.012,-0.0119,-0.0117,-0.0027,-0.0027,-0.0026,-0.0026,0.023,0.0236,0.0243,0,0,0,0,0,0,0,0,0,0,0,0,0,-0.0296,-0.0295,-0.023,-0.0229,-0.0228,-0.0121,-0.0119,-0.0117,-0.0027,-0.0027,-0.0026,-0.0026,0.0228,0.0236,0.0243,0,0,0,0,0,0,0,0,0,0,0,0,0,-0.0231,-0.0295,-0.023,-0.0174,-0.0168,-0.0121,-0.0119,-0.0116,-0.0028,-0.0027,-0.0026,-0.0025,0.0226,0.0235,0.0244,0.0287,0,0,0.0273,0.0277,0,0,0,0,0,0,0,0,-0.0235,-0.0228,-0.0183,-0.0178,-0.0171,-0.0091,-0.0049,0.0024,-0.0028,-0.0076,-0.0026,-0.0025,0.0133,0.015,0.0173,0.0299,0.031,0.0274,0.028,0.0284,0.0287,0,0,0,0,0,0,0,-0.0239,-0.0232,-0.0182,-0.0182,-0.0175,-0.0132,-0.0122,-0.0034,0.0029,-0.0072,-0.0066,-0.0062,0.0138,0.0164,0.018,0.0314,0.0274,0.0282,0.0288,0.0292,0.0519,0.0519,0,0,0,0,0,0,-0.0267,-0.0237,-0.0185,-0.0179,-0.0207,-0.0132,-0.0121,-0.0114,0.0025,0.0045,-0.0062,-0.0058,0.0147,0.0169,0.019,0.0234,0.0284,0.0293,0.0298,0.0518,0.0519,0.0519,0,0,0,0,0,0,-0.0268,-0.0263,-0.019,-0.0209,-0.0197,-0.0133,-0.0125,-0.0112,-0.0086,0.003,0.0053,-0.0051,0.0149,0.0177,0.0269,0.0245,0.0297,0.0306,0.0518,0.0519,0.0519,0.0332,0,0,0,0,0,0,-0.0271,-0.0264,-0.0268,-0.0211,-0.0197,-0.0173,-0.0126,-0.0111,-0.0087,-0.008,0.0047,0.0072,0.0151,0.0254,0.0278,0.0259,0.0313,0.0518,0.0518,0.0519,0.0338,0.0326,0.0316,0,0,0,0,0,-0.0273,-0.0283,-0.0268,-0.0262,-0.0204,-0.0175,-0.0163,-0.0111,-0.0088,-0.0083,0.0008,0.0068,0.0275,0.0261,0.029,0.0273,0.0517,0.0518,0.0519,0.0343,0.0329,0.0317,0,0,0,0,0,0,-0.031,-0.0273,-0.0256,-0.0253,-0.0224,-0.0161,-0.0153,-0.0121,-0.0049,-0.0035,0.0076,0.0107,0.0175,0.0261,0.0243,0.0345,0.0405,0.0411,0.0261,0.0249,0.0238,0.0228,0.0321,0,0,0,0,0,-0.0324,-0.0322,-0.028,-0.0279,-0.0268,-0.0214,-0.0195,-0.0164,-0.0097,-0.0065,0.0018,0.0118,0.02,0.0252,0.034,0.04,0.0468,0.0411,0.04,0.039,0.0404,0.046,0.0454,0.0522,0.0522,0.0522,0,0,-0.0338,-0.0319,-0.0317,-0.0288,-0.0257,-0.025,-0.0199,-0.018,-0.0168,-0.0045,0.0004,0.0083,0.0209,0.0268,0.0306,0.0337,0.0405,0.0391,0.0381,0.0401,0.046,0.0453,0.0447,0.0522,0.0522,0.0522,0,0,-0.0373,-0.035,-0.0362,-0.0345,-0.0316,-0.028,-0.0283,-0.0229,-0.0199,-0.0146,-0.0061,0.0005,0.0136,0.0207,0.0265,0.0256,0.0341,0.0282,0.0221,0.0273,0.0267,0.0263,0.0317,0.032,0.0279,0.0279,0.0279,0,-0.0394,-0.04,-0.0361,-0.037,-0.0362,-0.0303,-0.0314,-0.0275,-0.02,-0.0173,-0.0147,0.0021,0.0107,0.0186,0.0175,0.0227,0.0275,0.0246,0.0253,0.0251,0.025,0.0307,0.0312,0.027,0.0271,0.0272,0.0273,0,-0.0436,-0.0442,-0.0448,-0.0438,-0.0424,-0.0424,-0.0376,-0.0351,-0.031,-0.0265,-0.0192,-0.0083,0.0021,0.0041,0.0107,0.0142,0.0183,0.022,0.0269,0.023,0.0295,0.0303,0.0257,0.026,0.0263,0.0265,0,0,-0.0478,-0.0479,-0.0481,-0.0494,-0.0462,-0.0456,-0.0436,-0.0398,-0.038,-0.0313,-0.028,-0.0172,-0.0117,-0.0046,0.0031,0.0072,0.0081,0.013,0.0137,0.0154,0.0195,0.0246,0.0261,0.0105,0.0106,0.0106,0.0234,0,-0.0523,-0.0566,-0.0543,-0.0573,-0.059,-0.0536,-0.0522,-0.0479,-0.0423,-0.0375,-0.0276,-0.0208,-0.0148,-0.0108,-0.0063,0.0061,0.0099,0.0044,0.026,0.0267,0.0291,0.0271,0.0313,0.0432,0.0243,0.0244,0.0245,0,-0.057,-0.0594,-0.064,-0.0647,-0.0647,-0.0649,-0.0613,-0.0593,-0.0506,-0.0462,-0.0382,-0.0293,-0.02,-0.0159,0.0013,-0.0027,0.007,0.0151,0.0159,0.0285,0.0334,0.0452,0.0456,0.0625,0.0259,0.0258,0.0257,0,-0.063,-0.0658,-0.0699,-0.0703,-0.0699,-0.07,-0.0685,-0.062,-0.0602,-0.0511,-0.0479,-0.0352,-0.0278,-0.015,0.0027,0.0018,0.021,0.0226,0.0364,0.0369,0.0494,0.0508,0.0669,0.0332,0.0331,0.0331,0.0331,0,-0.0689,-0.072,-0.0732,-0.0758,-0.0796,-0.0765,-0.0776,-0.0736,-0.0677,-0.0654,-0.0529,-0.0473,-0.0277,-0.0136,0.001,0.0222,0.0205,0.0362,0.0407,0.043,0.0437,0.0665,0.0729,0.0336,0.0335,0.0334,0.0333,0,-0.0748,-0.0755,-0.0807,-0.0824,-0.083,-0.0857,-0.0851,-0.085,-0.0782,-0.0745,-0.0719,-0.0555,-0.036,-0.0153,0.0078,0.0211,0.0514,0.0474,0.049,0.0534,0.0809,0.086,0.1099,0.1198,0.0646,0.0648,0.0649,0,-0.0782,-0.0817,-0.0866,-0.0902,-0.0913,-0.0942,-0.0957,-0.0911,-0.0902,-0.079,-0.0774,-0.0581,-0.0424,-0.0055,0.0216,0.0499,0.0619,0.069,0.0682,0.084,0.0931,0.0968,0.1036,0.0772,0.0774,0.0776,0.0778,0,-0.0844,-0.0859,-0.0902,-0.0983,-0.102,-0.1058,-0.1071,-0.1082,-0.1012,-0.0953,-0.0834,-0.0697,-0.032,0.0031,0.0402,0.0572,0.0824,0.0741,0.0911,0.1052,0.1102,0.1212,0.0669,0.0797,0.0795,0.0793,0.0792,0.0792,-0.0878,-0.0928,-0.0985,-0.1057,-0.1108,-0.1156,-0.1178,-0.1166,-0.1139,-0.1027,-0.0886,-0.0638,-0.0126,0.0417,0.0614,0.1046,0.1001,0.1173,0.1225,0.125,0.1343,0.0837,0.1007,0.1006,0.1006,0.1005,0.1005,0,-0.0917,-0.0974,-0.1053,-0.1135,-0.1201,-0.1206,-0.1236,-0.1224,-0.1184,-0.1032,-0.0872,-0.0305,0.0205,0.0673,0.1276,0.1514,0.1565,0.1631,0.1702,0.175,0.1321,0.1324,0.1563,0.1563,0.1563,0.1563,0.1563,0.1562,-0.0938,-0.102,-0.1067,-0.1188,-0.1243,-0.1292,-0.1302,-0.1261,-0.1151,-0.087,-0.0558,-0.0305,0.038,0.1351,0.1909,0.1964,0.2159,0.2149,0.2247,0.1956,0.1917,0.1879,0.1899,0.2255,0.2256,0.267,0.2674,0.2677]}],[{"header":{"parameterUnit":"m.s-1","parameterCategory":2,"la1":30.2991,"la2":30.254,"lo1":-89.0895,"lo2":-89.0444,"dy":0.0017,"dx":0.0017,"nx":28,"ny":28,"refTime":"2025-11-19T03:00:00:Z","depth":"2","parameterNumber":2,"parameterNumberName":"U-component_of_CURRENTS"},"data":[0,0,0,0,0,0,0,0,0,0,0,0,0,0,0,0,0,0,0,0,0,0,0,0,0,0,0,0,0,0,0,0,0,0,0,0,0,0,0,0,0,0,0,0,0,0,0,0,0,0,0,0,0,0,0,0,0,0,-0.2316,-0.2317,0,-0.2361,-0.2362,-0.2362,-0.2347,-0.2346,-0.2345,-0.2344,-0.2343,-0.2344,-0.2345,0,0,0,0,0,0,0,0,0,0,0,0,0,-0.2238,-0.2239,-0.2316,-0.2317,-0.2317,-0.2361,-0.2362,-0.2362,-0.2347,-0.2346,-0.2345,-0.2344,-0.2343,-0.2344,-0.2345,0,0,0,0,0,0,0,0,0,0,0,0,0,-0.2275,-0.224,-0.2316,-0.2316,-0.2317,-0.2361,-0.2362,-0.2362,-0.2347,-0.2346,-0.2345,-0.2344,-0.2343,-0.2344,-0.2345,-0.2378,0,0,-0.2349,-0.2349,0,0,0,0,0,0,0,0,-0.2273,-0.2278,-0.2315,-0.2316,-0.2317,-0.2348,-0.2334,-0.2366,-0.2348,-0.2334,-0.2344,-0.2343,-0.2343,-0.2344,-0.2354,-0.2378,-0.2378,-0.2349,-0.2349,-0.235,-0.235,0,0,0,0,0,0,0,-0.227,-0.2276,-0.2332,-0.2316,-0.2317,-0.2322,-0.2325,-0.234,-0.2343,-0.2335,-0.2335,-0.2342,-0.2342,-0.2353,-0.2353,-0.2378,-0.2349,-0.235,-0.235,-0.2351,-0.2471,-0.2473,0,0,0,0,0,0,-0.2268,-0.2274,-0.2331,-0.2334,-0.2293,-0.2324,-0.2328,-0.2338,-0.2344,-0.2344,-0.2343,-0.2342,-0.2351,-0.2352,-0.2353,-0.2384,-0.235,-0.2351,-0.2352,-0.2469,-0.2472,-0.2474,0,0,0,0,0,0,-0.2266,-0.2273,-0.2329,-0.2305,-0.2313,-0.2327,-0.2339,-0.234,-0.2347,-0.2351,-0.235,-0.2349,-0.235,-0.2352,-0.2376,-0.2383,-0.2351,-0.2353,-0.2466,-0.2469,-0.2473,-0.2449,0,0,0,0,0,0,-0.2264,-0.2272,-0.2277,-0.2306,-0.2314,-0.2357,-0.234,-0.2342,-0.2355,-0.2353,-0.2356,-0.2354,-0.2349,-0.2375,-0.2378,-0.2384,-0.2353,-0.2462,-0.2467,-0.2472,-0.2447,-0.2452,-0.2456,0,0,0,0,0,-0.2261,-0.2274,-0.2277,-0.2284,-0.2321,-0.2358,-0.2363,-0.2367,-0.2356,-0.2367,-0.2374,-0.2354,-0.2407,-0.2378,-0.238,-0.2387,-0.246,-0.2466,-0.2471,-0.2445,-0.2451,-0.2456,0,0,0,0,0,0,-0.2241,-0.2275,-0.2279,-0.23,-0.2328,-0.2356,-0.2365,-0.2372,-0.2387,-0.2381,-0.2377,-0.2378,-0.2405,-0.2416,-0.2384,-0.2445,-0.2435,-0.2441,-0.2414,-0.2419,-0.2424,-0.241,-0.2354,0,0,0,0,0,-0.2241,-0.2256,-0.2293,-0.2308,-0.2323,-0.2345,-0.2359,-0.2368,-0.2387,-0.2391,-0.2396,-0.2414,-0.2435,-0.244,-0.2463,-0.249,-0.2479,-0.2506,-0.251,-0.2513,-0.251,-0.2501,-0.2503,-0.2493,-0.2493,-0.2493,0,0,-0.2236,-0.2257,-0.2264,-0.2304,-0.2322,-0.2352,-0.2349,-0.2376,-0.2396,-0.239,-0.2413,-0.2427,-0.245,-0.2479,-0.2492,-0.2482,-0.2515,-0.252,-0.2522,-0.2517,-0.2507,-0.2507,-0.2507,-0.2497,-0.2496,-0.2495,0,0,-0.2236,-0.2254,-0.2269,-0.2298,-0.2335,-0.2356,-0.2365,-0.2401,-0.2409,-0.2444,-0.2445,-0.2462,-0.25,-0.2507,-0.2518,-0.2569,-0.2541,-0.2589,-0.2588,-0.2579,-0.2578,-0.2577,-0.2564,-0.2562,-0.2587,-0.2587,-0.2587,0,-0.2226,-0.2254,-0.2279,-0.2307,-0.2329,-0.2358,-0.2384,-0.2408,-0.2446,-0.2455,-0.2452,-0.2503,-0.2511,-0.2536,-0.2554,-0.2571,-0.2564,-0.2551,-0.2578,-0.2577,-0.2576,-0.2563,-0.256,-0.2586,-0.2586,-0.2586,-0.2586,0,-0.2242,-0.2268,-0.2281,-0.2323,-0.2353,-0.2381,-0.2422,-0.2448,-0.2462,-0.248,-0.2511,-0.2526,-0.255,-0.2563,-0.2568,-0.2581,-0.2577,-0.2579,-0.2545,-0.2574,-0.256,-0.2558,-0.2585,-0.2586,-0.2586,-0.2586,0,0,-0.2203,-0.2277,-0.228,-0.2303,-0.2364,-0.2389,-0.243,-0.2471,-0.249,-0.2518,-0.2535,-0.2565,-0.2564,-0.2579,-0.2586,-0.2578,-0.2562,-0.2575,-0.2575,-0.2529,-0.2537,-0.2474,-0.2465,-0.2559,-0.2559,-0.2559,-0.2527,0,-0.2202,-0.2252,-0.2292,-0.2337,-0.2365,-0.2412,-0.2448,-0.2489,-0.2517,-0.2545,-0.2554,-0.2578,-0.2574,-0.2581,-0.2572,-0.2576,-0.2557,-0.257,-0.2546,-0.2545,-0.2457,-0.2461,-0.228,-0.2232,-0.2525,-0.2524,-0.2524,0,-0.2195,-0.2233,-0.2277,-0.2345,-0.2361,-0.2393,-0.2447,-0.2487,-0.2535,-0.2556,-0.2573,-0.2587,-0.2593,-0.2583,-0.2568,-0.2576,-0.2553,-0.2543,-0.2542,-0.2486,-0.2478,-0.2256,-0.2217,-0.2521,-0.2521,-0.2521,-0.2521,0,-0.2142,-0.2216,-0.2248,-0.2273,-0.2357,-0.238,-0.2421,-0.2479,-0.2509,-0.2557,-0.2577,-0.259,-0.2595,-0.2576,-0.2557,-0.2563,-0.253,-0.2535,-0.2452,-0.2448,-0.2291,-0.2273,-0.2506,-0.2506,-0.2506,-0.2506,-0.2506,0,-0.2119,-0.2142,-0.2225,-0.2243,-0.2277,-0.2348,-0.2383,-0.2431,-0.2492,-0.2515,-0.2569,-0.2578,-0.2592,-0.258,-0.2557,-0.2493,-0.2525,-0.2444,-0.2431,-0.2282,-0.2264,-0.2519,-0.2521,-0.2505,-0.2505,-0.2505,-0.2505,0,-0.2048,-0.2109,-0.2144,-0.2228,-0.2252,-0.227,-0.2352,-0.2374,-0.2453,-0.2484,-0.2498,-0.2563,-0.2551,-0.255,-0.2523,-0.2481,-0.2437,-0.2402,-0.2226,-0.2192,-0.2363,-0.2365,-0.231,-0.2307,-0.2305,-0.2303,-0.2301,0,-0.2013,-0.2026,-0.2105,-0.2118,-0.2151,-0.2198,-0.2224,-0.2327,-0.2355,-0.2458,-0.2458,-0.2491,-0.2475,-0.2429,-0.2363,-0.2298,-0.2371,-0.2099,-0.2075,-0.2347,-0.2341,-0.2346,-0.2351,-0.1861,-0.1856,-0.1852,-0.1849,0,-0.1932,-0.1961,-0.1988,-0.2019,-0.2046,-0.2083,-0.2135,-0.2158,-0.2271,-0.2306,-0.2342,-0.2348,-0.2327,-0.2186,-0.2123,-0.2061,-0.21,-0.2013,-0.2324,-0.1948,-0.1923,-0.1918,-0.1937,-0.1812,-0.1816,-0.1818,-0.182,-0.1822,-0.1849,-0.1846,-0.1882,-0.1897,-0.1928,-0.1944,-0.1929,-0.1997,-0.2026,-0.2053,-0.2151,-0.2102,-0.2094,-0.1909,-0.181,-0.1735,-0.1881,-0.1793,-0.1805,-0.1822,-0.1785,-0.1759,-0.1609,-0.1612,-0.1614,-0.1616,-0.1617,0,-0.1738,-0.1748,-0.1755,-0.1772,-0.1749,-0.1813,-0.1839,-0.1802,-0.1781,-0.1837,-0.1843,-0.1673,-0.1588,-0.1589,-0.1419,-0.1387,-0.1367,-0.1326,-0.1302,-0.1339,-0.1372,-0.1312,-0.1011,-0.1009,-0.1007,-0.1006,0,0,-0.1678,-0.1645,-0.1652,-0.1582,-0.1586,-0.1517,-0.1499,-0.1467,-0.1471,-0.1416,-0.1394,-0.1513,-0.1551,-0.1287,-0.1219,-0.1092,-0.1202,-0.1032,-0.1518,-0.1527,-0.1558,-0.1639,-0.1588,0,0,0,0,0]},{"header":{"parameterUnit":"m.s-1","parameterCategory":2,"la1":30.2991,"la2":30.254,"lo1":-89.0895,"lo2":-89.0444,"dy":0.0017,"dx":0.0017,"nx":28,"ny":28,"refTime":"2025-11-19T03:00:00:Z","depth":"2","parameterNumber":3,"parameterNumberName":"V-component_of_CURRENTS"},"data":[0,0,0,0,0,0,0,0,0,0,0,0,0,0,0,0,0,0,0,0,0,0,0,0,0,0,0,0,0,0,0,0,0,0,0,0,0,0,0,0,0,0,0,0,0,0,0,0,0,0,0,0,0,0,0,0,0,0,-0.0228,-0.0228,0,-0.0142,-0.0141,-0.0139,-0.0065,-0.0065,-0.0064,-0.0064,0.0093,0.0097,0.01,0,0,0,0,0,0,0,0,0,0,0,0,0,-0.0277,-0.0277,-0.0228,-0.0228,-0.0227,-0.0142,-0.0141,-0.0139,-0.0065,-0.0065,-0.0064,-0.0064,0.0092,0.0096,0.0101,0,0,0,0,0,0,0,0,0,0,0,0,0,-0.0227,-0.0277,-0.0229,-0.0182,-0.0178,-0.0143,-0.0141,-0.0139,-0.0066,-0.0065,-0.0064,-0.0063,0.009,0.0096,0.0101,0.012,0,0,0.0118,0.0121,0,0,0,0,0,0,0,0,-0.023,-0.0225,-0.019,-0.0186,-0.018,-0.0117,-0.01,-0.005,-0.0066,-0.0105,-0.0064,-0.0063,0.0027,0.0037,0.0056,0.0127,0.0134,0.0119,0.0122,0.0125,0.0126,0,0,0,0,0,0,0,-0.0234,-0.0228,-0.0191,-0.0189,-0.0183,-0.0148,-0.014,-0.009,-0.004,-0.0101,-0.0096,-0.0092,0.003,0.005,0.006,0.0137,0.0119,0.0124,0.0127,0.0129,0.0256,0.0256,0,0,0,0,0,0,-0.0255,-0.0232,-0.0194,-0.0188,-0.0207,-0.0149,-0.0139,-0.0135,-0.0042,-0.0029,-0.0093,-0.0089,0.004,0.0054,0.0066,0.0095,0.0124,0.013,0.0133,0.0256,0.0256,0.0256,0,0,0,0,0,0,-0.0256,-0.0252,-0.0197,-0.0211,-0.0202,-0.0149,-0.0144,-0.0134,-0.0113,-0.0038,-0.0022,-0.0084,0.0042,0.0058,0.0109,0.0102,0.0132,0.0137,0.0256,0.0256,0.0256,0.0153,0,0,0,0,0,0,-0.0258,-0.0253,-0.0257,-0.0212,-0.0202,-0.0185,-0.0145,-0.0133,-0.0114,-0.0108,-0.0025,-0.0009,0.0043,0.01,0.0114,0.011,0.0142,0.0256,0.0256,0.0256,0.0157,0.015,0.0144,0,0,0,0,0,-0.026,-0.027,-0.0258,-0.0253,-0.0209,-0.0186,-0.0177,-0.0135,-0.0115,-0.0112,-0.0053,-0.0012,0.0111,0.0104,0.0121,0.0118,0.0256,0.0256,0.0256,0.0159,0.0151,0.0144,0,0,0,0,0,0,-0.0292,-0.0263,-0.0248,-0.0249,-0.0225,-0.0175,-0.0169,-0.0143,-0.0095,-0.0086,-0.0012,0.0007,0.0047,0.0099,0.009,0.0157,0.0191,0.0194,0.0112,0.0105,0.0098,0.0087,0.0146,0,0,0,0,0,-0.0304,-0.0304,-0.0271,-0.0272,-0.0263,-0.0218,-0.0204,-0.0178,-0.0133,-0.0111,-0.0055,0.0008,0.006,0.0093,0.0146,0.0182,0.0232,0.0194,0.0187,0.0182,0.0185,0.0246,0.0245,0.0256,0.0256,0.0256,0,0,-0.0317,-0.0302,-0.0302,-0.028,-0.0255,-0.025,-0.0207,-0.0192,-0.0183,-0.0101,-0.0068,-0.0015,0.0064,0.0103,0.0127,0.0146,0.0203,0.0182,0.0176,0.0183,0.0246,0.0245,0.0244,0.0256,0.0256,0.0256,0,0,-0.0348,-0.0331,-0.0343,-0.0329,-0.0306,-0.0277,-0.0278,-0.0235,-0.0209,-0.0177,-0.0116,-0.0066,0.0011,0.0067,0.0105,0.0099,0.0163,0.0114,0.0078,0.0137,0.0136,0.0136,0.0185,0.019,0.0116,0.0115,0.0115,0,-0.0367,-0.0375,-0.0343,-0.0352,-0.0346,-0.0295,-0.0306,-0.0274,-0.022,-0.0198,-0.0179,-0.0062,-0.0004,0.0057,0.0052,0.0084,0.0124,0.0095,0.0126,0.0128,0.013,0.018,0.0187,0.011,0.0111,0.0111,0.0112,0,-0.0406,-0.0413,-0.0419,-0.0412,-0.0401,-0.0403,-0.0362,-0.0341,-0.0306,-0.0267,-0.0209,-0.013,-0.0056,-0.0036,0.0007,0.005,0.0075,0.0103,0.0138,0.0122,0.0177,0.0186,0.0103,0.0105,0.0107,0.0108,0,0,-0.0444,-0.0447,-0.0449,-0.0461,-0.0435,-0.0432,-0.0414,-0.0381,-0.0364,-0.0307,-0.0275,-0.0191,-0.0144,-0.0096,-0.0035,0.0014,0.0052,0.0055,0.0061,0.0091,0.0174,0.0201,0.0215,0.0081,0.0083,0.0084,0.0201,0,-0.0483,-0.0523,-0.0505,-0.0533,-0.0549,-0.0501,-0.0491,-0.0452,-0.0403,-0.0359,-0.027,-0.0216,-0.0167,-0.0134,-0.0078,0.0026,0.0075,0.0018,0.0198,0.0204,0.022,0.0226,0.0193,0.0296,0.0211,0.0212,0.0214,0,-0.0526,-0.0548,-0.059,-0.0598,-0.0598,-0.0601,-0.0571,-0.0554,-0.0474,-0.0434,-0.036,-0.0285,-0.0193,-0.0157,0.0009,-0.0031,0.006,0.0136,0.0143,0.0214,0.0249,0.0304,0.0317,0.023,0.0229,0.0228,0.0226,0,-0.0578,-0.0604,-0.0642,-0.0646,-0.0645,-0.0646,-0.0635,-0.0577,-0.0561,-0.0476,-0.0447,-0.0326,-0.0259,-0.0132,0.0027,0.0019,0.0205,0.0222,0.0334,0.0336,0.0369,0.0373,0.0333,0.0332,0.0332,0.0332,0.0332,0,-0.063,-0.0658,-0.0671,-0.0695,-0.0731,-0.0704,-0.0715,-0.068,-0.0626,-0.0605,-0.049,-0.0438,-0.0252,-0.012,0.0016,0.0207,0.0205,0.0334,0.0373,0.0332,0.033,0.0326,0.0324,0.0336,0.0335,0.0334,0.0334,0,-0.0681,-0.0689,-0.0736,-0.0753,-0.076,-0.0786,-0.0784,-0.0784,-0.0722,-0.0688,-0.0663,-0.0512,-0.0334,-0.0143,0.0078,0.0197,0.0373,0.0438,0.0371,0.0401,0.0465,0.0456,0.0577,0.0579,0.0581,0.0583,0.0584,0,-0.0711,-0.0743,-0.079,-0.0824,-0.0835,-0.0864,-0.088,-0.0839,-0.0833,-0.073,-0.0714,-0.054,-0.0401,-0.0064,0.0173,0.0428,0.0427,0.0537,0.0523,0.0467,0.0493,0.0481,0.047,0.0524,0.0524,0.0525,0.0525,0,-0.0767,-0.0781,-0.082,-0.0896,-0.0932,-0.0969,-0.0984,-0.0994,-0.0932,-0.0879,-0.0773,-0.0652,-0.0324,-0.0044,0.0282,0.0425,0.0494,0.0557,0.0535,0.046,0.0424,0.0447,0.0437,0.053,0.0529,0.0529,0.0529,0.0529,-0.0797,-0.0842,-0.0896,-0.0963,-0.1012,-0.1058,-0.108,-0.1071,-0.1048,-0.0947,-0.0827,-0.0617,-0.0342,0.0125,0.0357,0.0572,0.057,0.0625,0.062,0.0615,0.0581,0.055,0.0673,0.0673,0.0673,0.0673,0.0674,0,-0.0835,-0.0886,-0.0958,-0.1035,-0.1097,-0.1104,-0.1134,-0.1122,-0.1087,-0.0959,-0.0822,-0.0511,-0.0185,0.0102,0.0446,0.0652,0.0633,0.0681,0.0613,0.0607,0.0603,0.0565,0.0654,0.0655,0.0655,0.0655,0,0,-0.0856,-0.093,-0.097,-0.1083,-0.1137,-0.1185,-0.1197,-0.1156,-0.1064,-0.0931,-0.0769,-0.0535,-0.018,0.0058,0.0317,0.0496,0.0497,0.0512,0.0507,0.0391,0.0383,0.0551,0.0486,0,0,0,0,0]}],[{"header":{"parameterUnit":"m.s-1","parameterCategory":2,"la1":30.2991,"la2":30.254,"lo1":-89.0895,"lo2":-89.0444,"dy":0.0017,"dx":0.0017,"nx":28,"ny":28,"refTime":"2025-11-19T03:00:00:Z","depth":"4","parameterNumber":2,"parameterNumberName":"U-component_of_CURRENTS"},"data":[0,0,0,0,0,0,0,0,0,0,0,0,0,0,0,0,0,0,0,0,0,0,0,0,0,0,0,0,0,0,0,0,0,0,0,0,0,0,0,0,0,0,0,0,0,0,0,0,0,0,0,0,0,0,0,0,0,0,-0.1628,-0.1629,0,-0.17,-0.1701,-0.1701,-0.1738,-0.1738,-0.1738,-0.1738,-0.1726,-0.1726,-0.1725,0,0,0,0,0,0,0,0,0,0,0,0,0,-0.1533,-0.1535,-0.1628,-0.1629,-0.163,-0.17,-0.1701,-0.1702,-0.1738,-0.1738,-0.1738,-0.1738,-0.1726,-0.1726,-0.1725,0,0,0,0,0,0,0,0,0,0,0,0,0,-0.1585,-0.1535,-0.1628,-0.1658,-0.1662,-0.17,-0.1701,-0.1702,-0.1738,-0.1738,-0.1738,-0.1739,-0.1727,-0.1726,-0.1725,-0.1714,0,0,-0.1723,-0.1722,0,0,0,0,0,0,0,0,-0.1582,-0.1588,-0.1652,-0.1656,-0.166,-0.1712,-0.1663,-0.1703,-0.1738,-0.1707,-0.1738,-0.1739,-0.1715,-0.1715,-0.1726,-0.1714,-0.1713,-0.1723,-0.1722,-0.1722,-0.1722,0,0,0,0,0,0,0,-0.1578,-0.1585,-0.1654,-0.1654,-0.1658,-0.1672,-0.168,-0.1671,-0.1705,-0.1709,-0.1713,-0.1724,-0.1716,-0.1727,-0.1726,-0.1713,-0.1723,-0.1722,-0.1722,-0.1721,-0.1781,-0.1783,0,0,0,0,0,0,-0.1573,-0.1582,-0.1652,-0.1657,-0.1623,-0.1674,-0.1682,-0.1693,-0.1707,-0.1711,-0.1724,-0.1725,-0.1728,-0.1727,-0.1726,-0.1789,-0.1722,-0.1721,-0.1721,-0.1779,-0.1782,-0.1784,0,0,0,0,0,0,-0.157,-0.1578,-0.1649,-0.1622,-0.1633,-0.1675,-0.1688,-0.1695,-0.1732,-0.1719,-0.1721,-0.1757,-0.1728,-0.1727,-0.1756,-0.1786,-0.1721,-0.172,-0.1777,-0.178,-0.1783,-0.1867,0,0,0,0,0,0,-0.1567,-0.1577,-0.1595,-0.1622,-0.1634,-0.1691,-0.1688,-0.1696,-0.1738,-0.1742,-0.1747,-0.1746,-0.1728,-0.1758,-0.1756,-0.1784,-0.172,-0.1774,-0.1778,-0.1782,-0.1862,-0.1873,-0.1882,0,0,0,0,0,-0.1564,-0.1583,-0.1596,-0.1605,-0.1654,-0.1692,-0.17,-0.1729,-0.1739,-0.1762,-0.1778,-0.1747,-0.178,-0.1759,-0.1756,-0.1784,-0.1772,-0.1777,-0.1782,-0.1857,-0.1871,-0.1882,0,0,0,0,0,0,-0.1553,-0.1589,-0.1604,-0.1635,-0.1671,-0.1699,-0.1726,-0.1746,-0.1777,-0.1786,-0.1771,-0.1771,-0.181,-0.1789,-0.1766,-0.1816,-0.1771,-0.1776,-0.183,-0.1842,-0.1852,-0.1835,-0.1719,0,0,0,0,0,-0.1559,-0.1583,-0.162,-0.1648,-0.1667,-0.1702,-0.1726,-0.1749,-0.1775,-0.1792,-0.1802,-0.1811,-0.1822,-0.1827,-0.1833,-0.1855,-0.1827,-0.1873,-0.1883,-0.1892,-0.1878,-0.188,-0.1888,-0.1799,-0.1799,-0.1799,0,0,-0.1563,-0.1586,-0.1602,-0.1648,-0.1676,-0.1711,-0.1718,-0.1764,-0.1798,-0.1782,-0.1837,-0.1848,-0.1839,-0.1874,-0.1887,-0.1861,-0.1908,-0.1898,-0.1905,-0.1885,-0.1885,-0.1893,-0.1901,-0.1802,-0.1802,-0.1801,0,0,-0.1574,-0.1606,-0.1628,-0.1661,-0.1713,-0.1736,-0.1756,-0.1806,-0.1837,-0.1888,-0.189,-0.1922,-0.194,-0.1945,-0.1944,-0.2011,-0.1965,-0.202,-0.205,-0.2054,-0.206,-0.2065,-0.2056,-0.206,-0.202,-0.202,-0.202,0,-0.158,-0.1611,-0.1643,-0.1674,-0.1706,-0.175,-0.1785,-0.1823,-0.1881,-0.1905,-0.1916,-0.1968,-0.1969,-0.1998,-0.203,-0.2031,-0.2021,-0.2003,-0.2065,-0.2069,-0.2073,-0.2062,-0.2065,-0.2025,-0.2024,-0.2024,-0.2023,0,-0.1598,-0.1639,-0.1657,-0.1709,-0.1748,-0.1789,-0.1841,-0.189,-0.1934,-0.1965,-0.2024,-0.2042,-0.2064,-0.2084,-0.2076,-0.2113,-0.2094,-0.2081,-0.2029,-0.2087,-0.2072,-0.2074,-0.2031,-0.203,-0.2028,-0.2027,0,0,-0.157,-0.1654,-0.1663,-0.1697,-0.1773,-0.1803,-0.1868,-0.1929,-0.197,-0.2032,-0.2076,-0.2121,-0.2134,-0.2135,-0.2142,-0.2151,-0.2187,-0.2133,-0.2132,-0.2115,-0.2189,-0.2045,-0.2032,-0.2188,-0.2189,-0.2189,-0.2172,0,-0.1577,-0.1637,-0.1681,-0.1748,-0.1783,-0.1847,-0.1901,-0.1963,-0.2018,-0.2074,-0.2106,-0.215,-0.2152,-0.2175,-0.2188,-0.2189,-0.2193,-0.2191,-0.2142,-0.214,-0.1996,-0.2029,-0.2191,-0.2173,-0.2173,-0.2173,-0.2174,0,-0.1571,-0.1616,-0.1681,-0.1768,-0.1791,-0.1841,-0.1929,-0.1984,-0.2064,-0.2105,-0.2152,-0.2178,-0.2215,-0.2207,-0.2221,-0.2223,-0.2209,-0.2203,-0.2202,-0.2029,-0.1997,-0.21,-0.2176,-0.2175,-0.2175,-0.2175,-0.2175,0,-0.1519,-0.1612,-0.1665,-0.1697,-0.1802,-0.1849,-0.1908,-0.1995,-0.204,-0.2125,-0.216,-0.2205,-0.223,-0.2231,-0.2223,-0.223,-0.222,-0.2223,-0.2075,-0.2066,-0.2163,-0.2157,-0.2216,-0.2216,-0.2216,-0.2216,-0.2217,0,-0.1491,-0.1536,-0.1652,-0.168,-0.1745,-0.183,-0.19,-0.1965,-0.2051,-0.2088,-0.2169,-0.2187,-0.2239,-0.224,-0.2228,-0.2142,-0.222,-0.2068,-0.2046,-0.2203,-0.2201,-0.2165,-0.2159,-0.2216,-0.2216,-0.2216,-0.2216,0,-0.1417,-0.1498,-0.1562,-0.1682,-0.1722,-0.1768,-0.1886,-0.1923,-0.2025,-0.2073,-0.21,-0.2179,-0.2177,-0.2199,-0.2194,-0.2125,-0.2075,-0.2024,-0.2182,-0.2171,-0.1922,-0.1921,-0.1859,-0.1853,-0.1849,-0.1845,-0.1842,0,-0.1381,-0.141,-0.1542,-0.1576,-0.1635,-0.172,-0.1766,-0.1889,-0.1922,-0.2041,-0.2039,-0.2089,-0.2119,-0.199,-0.2036,-0.1984,-0.1961,-0.1921,-0.1925,-0.1898,-0.1883,-0.189,-0.1895,-0.1835,-0.1833,-0.1832,-0.1831,0,-0.1302,-0.1364,-0.1416,-0.149,-0.1552,-0.1611,-0.1689,-0.17,-0.1823,-0.1934,-0.1919,-0.1911,-0.1901,-0.1887,-0.1851,-0.182,-0.1942,-0.1874,-0.1883,-0.1886,-0.1868,-0.186,-0.187,-0.1815,-0.1818,-0.1819,-0.182,0,-0.1239,-0.1255,-0.1331,-0.1378,-0.145,-0.147,-0.1535,-0.1566,-0.1618,-0.1752,-0.1737,-0.1797,-0.1874,-0.18,-0.1772,-0.1723,-0.1704,-0.1646,-0.1668,-0.1686,-0.1635,-0.1587,-0.1415,0,0,0,0,0,-0.1167,-0.1171,-0.1208,-0.1258,-0.132,-0.1361,-0.1461,-0.1528,-0.1648,-0.1585,-0.1658,-0.1641,-0.1607,-0.1641,-0.1553,-0.1695,-0.1711,-0.1586,-0.1657,-0.1728,-0.1746,-0.1702,0,0,0,0,0,0,-0.1119,-0.1153,-0.1166,-0.1138,-0.1143,-0.1201,-0.1257,-0.1346,-0.1324,-0.1449,-0.1436,-0.153,-0.1518,-0.1623,-0.1514,-0.1522,-0.153,-0.1631,-0.1626,-0.1717,-0.1734,-0.1749,-0.171,0,0,0,0,0]},{"header":{"parameterUnit":"m.s-1","parameterCategory":2,"la1":30.2991,"la2":30.254,"lo1":-89.0895,"lo2":-89.0444,"dy":0.0017,"dx":0.0017,"nx":28,"ny":28,"refTime":"2025-11-19T03:00:00:Z","depth":"4","parameterNumber":3,"parameterNumberName":"V-component_of_CURRENTS"},"data":[0,0,0,0,0,0,0,0,0,0,0,0,0,0,0,0,0,0,0,0,0,0,0,0,0,0,0,0,0,0,0,0,0,0,0,0,0,0,0,0,0,0,0,0,0,0,0,0,0,0,0,0,0,0,0,0,0,0,-0.0187,-0.0187,0,-0.0136,-0.0135,-0.0134,-0.0085,-0.0085,-0.0084,-0.0084,0.0,0.0002,0.0004,0,0,0,0,0,0,0,0,0,0,0,0,0,-0.0208,-0.0208,-0.0187,-0.0187,-0.0186,-0.0136,-0.0135,-0.0134,-0.0085,-0.0085,-0.0084,-0.0084,-0.0,0.0002,0.0004,0,0,0,0,0,0,0,0,0,0,0,0,0,-0.018,-0.0208,-0.0187,-0.0158,-0.0155,-0.0136,-0.0135,-0.0134,-0.0085,-0.0085,-0.0084,-0.0083,-0.0001,0.0002,0.0005,0.001,0,0,0.0013,0.0014,0,0,0,0,0,0,0,0,-0.0181,-0.0179,-0.0162,-0.016,-0.0156,-0.0118,-0.0111,-0.0085,-0.0085,-0.0109,-0.0084,-0.0083,-0.0038,-0.0032,-0.0021,0.0014,0.0017,0.0013,0.0015,0.0016,0.0017,0,0,0,0,0,0,0,-0.0183,-0.018,-0.0164,-0.0162,-0.0158,-0.0135,-0.013,-0.0106,-0.0075,-0.0107,-0.0104,-0.0102,-0.0036,-0.0024,-0.0019,0.0019,0.0013,0.0016,0.0018,0.0019,0.0067,0.0066,0,0,0,0,0,0,-0.0197,-0.0183,-0.0166,-0.0163,-0.017,-0.0135,-0.013,-0.0129,-0.0076,-0.0068,-0.0103,-0.01,-0.0029,-0.0022,-0.0015,0.0,0.0016,0.0019,0.0021,0.0067,0.0067,0.0066,0,0,0,0,0,0,-0.0198,-0.0196,-0.0168,-0.0173,-0.0168,-0.0136,-0.0135,-0.0128,-0.0117,-0.0074,-0.0065,-0.0098,-0.0028,-0.0019,0.0006,0.0004,0.002,0.0023,0.0068,0.0067,0.0066,0.0028,0,0,0,0,0,0,-0.0198,-0.0197,-0.0202,-0.0174,-0.0169,-0.0164,-0.0136,-0.0128,-0.0118,-0.0114,-0.0067,-0.0058,-0.0027,0.0002,0.0009,0.0008,0.0025,0.0068,0.0067,0.0067,0.003,0.0026,0.0023,0,0,0,0,0,-0.0199,-0.021,-0.0203,-0.0201,-0.0177,-0.0165,-0.016,-0.0132,-0.0118,-0.0118,-0.0083,-0.006,0.0002,0.0004,0.0013,0.0012,0.0069,0.0068,0.0067,0.0031,0.0027,0.0023,0,0,0,0,0,0,-0.0221,-0.0206,-0.0197,-0.0203,-0.0189,-0.0157,-0.0156,-0.0139,-0.0111,-0.0106,-0.0062,-0.0051,-0.0031,-0.0007,-0.0007,0.0022,0.0038,0.0038,0.0008,0.0004,0.0001,-0.001,0.0027,0,0,0,0,0,-0.0231,-0.0235,-0.0215,-0.0221,-0.0216,-0.0188,-0.018,-0.0163,-0.0136,-0.0123,-0.0091,-0.0058,-0.0029,-0.0011,0.0015,0.0032,0.0068,0.0035,0.0032,0.0029,0.0026,0.0084,0.0086,0.0063,0.0063,0.0063,0,0,-0.0241,-0.0234,-0.0237,-0.0226,-0.0212,-0.0211,-0.0181,-0.0175,-0.017,-0.0119,-0.0103,-0.007,-0.0028,-0.0007,0.0003,0.0014,0.0053,0.0028,0.0025,0.0023,0.0084,0.0086,0.0088,0.0063,0.0063,0.0063,0,0,-0.0266,-0.0258,-0.027,-0.0264,-0.0251,-0.0233,-0.0235,-0.0208,-0.0192,-0.0176,-0.0135,-0.0101,-0.0066,-0.0028,-0.0006,-0.0013,0.003,-0.0012,-0.0032,0.0025,0.0028,0.0031,0.0074,0.0081,-0.0011,-0.0011,-0.0011,0,-0.028,-0.0291,-0.0272,-0.0282,-0.0281,-0.0247,-0.0258,-0.0238,-0.0206,-0.0191,-0.0179,-0.0109,-0.0074,-0.0032,-0.0035,-0.0019,0.0013,-0.0018,0.0022,0.0026,0.0029,0.0073,0.0082,-0.0013,-0.0012,-0.0012,-0.0012,0,-0.0311,-0.0321,-0.0328,-0.0329,-0.0325,-0.033,-0.0304,-0.0292,-0.0269,-0.0242,-0.0204,-0.0149,-0.0104,-0.009,-0.0064,-0.0024,-0.001,0.001,0.0034,0.0029,0.0076,0.0085,-0.0015,-0.0015,-0.0014,-0.0014,0,0,-0.0337,-0.0348,-0.0352,-0.0364,-0.0352,-0.0353,-0.0345,-0.0324,-0.0314,-0.0273,-0.0251,-0.0193,-0.0156,-0.0129,-0.0085,-0.0036,0.0018,-0.001,-0.0006,0.0035,0.0135,0.0112,0.0121,0.0046,0.0047,0.0048,0.0155,0,-0.0366,-0.0402,-0.0394,-0.0422,-0.0437,-0.0409,-0.0406,-0.0381,-0.0347,-0.0316,-0.0246,-0.0211,-0.0172,-0.0149,-0.0093,-0.0011,0.0041,-0.0014,0.0131,0.0135,0.0118,0.013,0.0053,0.0163,0.0165,0.0166,0.0168,0,-0.0397,-0.0419,-0.0457,-0.0474,-0.0476,-0.0486,-0.0472,-0.0463,-0.0405,-0.0377,-0.0318,-0.0263,-0.0184,-0.0154,-0.0006,-0.0044,0.0037,0.0103,0.0109,0.0108,0.013,0.017,0.0185,0.0184,0.0183,0.0181,0.018,0,-0.043,-0.046,-0.0495,-0.0503,-0.0513,-0.0522,-0.0521,-0.0483,-0.0476,-0.0412,-0.039,-0.0288,-0.0236,-0.0119,0.0013,0.0008,0.0172,0.0189,0.0249,0.0248,0.0254,0.025,0.0295,0.0295,0.0294,0.0294,0.0294,0,-0.0461,-0.049,-0.0518,-0.054,-0.0579,-0.0567,-0.0587,-0.0565,-0.053,-0.0516,-0.0425,-0.0383,-0.0225,-0.0113,0.0007,0.0153,0.0177,0.0247,0.0277,0.0233,0.0226,0.0261,0.0255,0.0298,0.0297,0.0297,0.0296,0,-0.0489,-0.0506,-0.0554,-0.0584,-0.0598,-0.0627,-0.0646,-0.0651,-0.061,-0.0585,-0.0567,-0.0445,-0.0298,-0.014,0.0055,0.0139,0.0284,0.033,0.0263,0.0288,0.0323,0.0315,0.0409,0.0409,0.0409,0.0409,0.0409,0,-0.0504,-0.0533,-0.0595,-0.0632,-0.0651,-0.069,-0.0714,-0.0695,-0.0692,-0.0618,-0.0603,-0.0468,-0.037,-0.0108,0.0051,0.0278,0.0305,0.0373,0.0354,0.0316,0.0337,0.0328,0.0319,0.041,0.041,0.041,0.041,0,-0.0532,-0.0559,-0.0598,-0.0678,-0.0723,-0.0765,-0.0791,-0.0795,-0.0757,-0.0725,-0.0616,-0.0475,-0.0312,-0.0113,0.0058,0.022,0.0324,0.0375,0.0376,0.0359,0.0318,0.0336,0.0328,0.041,0.041,0.041,0.041,0,-0.0549,-0.0588,-0.0646,-0.071,-0.0775,-0.0815,-0.0828,-0.0807,-0.0793,-0.0702,-0.0668,-0.048,-0.037,-0.0141,0.0019,0.017,0.0208,0.0248,0.0256,0.0258,0.0175,0.0099,0.0152,0,0,0,0,0,-0.0561,-0.0606,-0.0673,-0.0743,-0.0809,-0.084,-0.0866,-0.0861,-0.0827,-0.0756,-0.0707,-0.0549,-0.0299,-0.0187,-0.0037,0.001,0.022,0.0186,0.0266,0.0413,0.0412,0.0337,0,0,0,0,0,0,-0.0571,-0.0636,-0.0672,-0.0754,-0.0805,-0.0866,-0.0882,-0.086,-0.0807,-0.0752,-0.0614,-0.0529,-0.0283,-0.0383,-0.0039,0.0007,0.0073,0.031,0.0312,0.0413,0.0412,0.0412,0.0335,0,0,0,0,0]}]]